Dati Storici

Data ora Umidita' aria (%) Temperatura aria (°C) Rad globale (W/m²) Gonioanemometro (°) Tacoanemometro (m/s) Pioggia (mm)
11-06-2020 04:10 97.9 % 13.172 -78.288 0.891 0 0
11-06-2020 04:00 97.9 % 13.24 -77.049 0.903 0 0
11-06-2020 03:50 97.9 % 13.288 -80.558 0.008 0 0
11-06-2020 03:40 97.9 % 13.277 -80.477 0.012 0 0
11-06-2020 03:30 97.9 % 13.254 -51.262 1.14 0 0
11-06-2020 03:20 97.9 % 13.318 -79.435 1.38 0 0
11-06-2020 03:10 97.9 % 13.424 -79.64 0.551 0 0
11-06-2020 03:00 97.9 % 13.556 -80.172 0.579 0 0
11-06-2020 02:50 98 % 13.636 -56.752 0.009 0 0
11-06-2020 02:40 98 % 13.688 -53.7 0.007 0 0
11-06-2020 02:30 98 % 13.79 -80.166 1.185 0 0
11-06-2020 02:20 98 % 13.918 -78.922 0.27 0 0
11-06-2020 02:10 98 % 14.008 -80.404 0.978 0 0
11-06-2020 02:00 97.9 % 13.986 -48.666 0.002 0 0
11-06-2020 01:50 97.9 % 13.906 -50.091 0.001 0 0
11-06-2020 01:40 97.9 % 13.971 -80.306 0.001 0 0
11-06-2020 01:30 97.9 % 13.938 -70.159 0.004 0 0
11-06-2020 01:20 97.9 % 13.9 -77.719 0.003 0 0
11-06-2020 01:10 97.9 % 13.875 -48.883 0.005 0 0
11-06-2020 01:00 98 % 13.808 -79.071 0.486 0 0

I dati sono presentati in modo automatico a scopo informativo. In seguito a verifica i dati possono subire modifiche o essere invalidati e non riportati negli archivi definitivi.